G0BMH-13 Weather Reports


Display with metric or nautical units.
time (UTC)temp
F
wind
direction
speed
MPH
gust
MPH
rain 1hr
in
rain 24hr
in
rain mn
in
humidity
%
barometer
mb
20260507175003 55 188 2.0 7.0 0.00 0.00 0.00 55 1014.4
20260507174503 55 179 2.0 6.0 0.00 0.00 0.00 56 1014.3
20260507174003 55 176 2.0 8.0 0.00 0.00 0.00 57 1014.1
20260507173503 55 175 2.0 8.0 0.00 0.00 0.00 56 1014.2
20260507173024 55 164 2.0 7.0 0.00 0.00 0.00 57 1014.2
20260507172503 55 166 2.0 7.0 0.00 0.00 0.00 55 1014.2
20260507172003 56 168 2.0 7.0 0.00 0.00 0.00 55 1014.1
20260507171503 56 169 2.0 6.0 0.00 0.00 0.00 55 1014.3
20260507171003 56 167 2.0 6.0 0.00 0.00 0.00 56 1014.2
20260507170503 56 165 1.0 6.0 0.00 0.00 0.00 54 1014.3
20260507170024 56 159 1.0 4.0 0.00 0.00 0.00 56 1014.2
20260507165503 56 154 1.0 4.0 0.00 0.00 0.00 55 1014.3
20260507165003 56 162 1.0 4.0 0.00 0.00 0.00 56 1014.4
20260507164503 56 149 1.0 6.0 0.00 0.00 0.00 57 1014.3
20260507164024 56 146 2.0 6.0 0.00 0.00 0.00 56 1014.3
20260507163524 55 150 2.0 4.0 0.00 0.00 0.00 55 1014.4
20260507163004 55 171 2.0 6.0 0.00 0.00 0.00 56 1014.3
20260507162503 56 200 2.0 7.0 0.00 0.00 0.00 56 1014.4
20260507162003 56 214 3.0 7.0 0.00 0.00 0.00 54 1014.5
20260507161503 56 202 2.0 7.0 0.00 0.00 0.00 55 1014.3
20260507161025 56 185 2.0 6.0 0.00 0.00 0.00 54 1014.3
20260507160503 57 186 2.0 8.0 0.00 0.00 0.00 54 1014.5
20260507160003 57 174 2.0 8.0 0.00 0.00 0.00 53 1014.5
20260507155503 57 162 2.0 7.0 0.00 0.00 0.00 53 1014.5
20260507155003 57 170 2.0 8.0 0.00 0.00 0.00 53 1014.4
20260507154524 58 175 2.0 8.0 0.00 0.00 0.00 51 1014.4
20260507154003 58 186 2.0 8.0 0.00 0.00 0.00 52 1014.5
20260507153504 58 182 3.0 7.0 0.00 0.00 0.00 51 1014.2
20260507153024 58 173 3.0 8.0 0.00 0.00 0.00 51 1014.5
20260507152503 58 173 3.0 8.0 0.00 0.00 0.00 51 1014.4
20260507152003 58 182 3.0 9.0 0.00 0.00 0.00 55 1014.4
20260507151503 57 192 4.0 9.0 0.00 0.00 0.00 55 1014.5
20260507151003 57 178 3.0 8.0 0.00 0.00 0.00 54 1014.6
20260507150503 58 159 2.0 7.0 0.00 0.00 0.00 54 1014.5
20260507150004 57 187 3.0 9.0 0.00 0.00 0.00 56 1014.6
20260507145503 56 192 3.0 9.0 0.00 0.00 0.00 56 1014.4
20260507145003 57 182 3.0 10.0 0.00 0.00 0.00 56 1014.7
20260507144524 57 187 3.0 10.0 0.00 0.00 0.00 56 1014.6
20260507144003 57 199 3.0 8.0 0.00 0.00 0.00 56 1014.7
20260507143503 58 206 3.0 9.0 0.00 0.00 0.00 55 1014.8
20260507143003 56 206 3.0 9.0 0.00 0.00 0.00 57 1015.0
20260507142503 57 186 3.0 9.0 0.00 0.00 0.00 56 1015.2
20260507142003 57 181 3.0 11.0 0.00 0.00 0.00 57 1015.1
20260507141524 57 207 3.0 11.0 0.00 0.00 0.00 56 1015.3
20260507141024 56 212 4.0 10.0 0.00 0.00 0.00 56 1015.1
20260507140503 56 178 3.0 10.0 0.00 0.00 0.00 56 1015.3
20260507140003 56 173 3.0 9.0 0.00 0.00 0.00 57 1015.2
20260507135504 56 199 2.0 9.0 0.00 0.00 0.00 58 1015.3
20260507135003 57 187 2.0 6.0 0.00 0.00 0.00 56 1015.1
20260507134524 56 189 3.0 8.0 0.00 0.00 0.00 56 1015.2
20260507134004 55 187 3.0 8.0 0.00 0.00 0.00 58 1015.2
20260507133503 56 173 2.0 8.0 0.00 0.00 0.00 58 1015.3
20260507133024 55 181 2.0 7.0 0.00 0.00 0.00 58 1015.5
20260507132503 55 164 3.0 9.0 0.00 0.00 0.00 58 1015.4
20260507132003 55 172 3.0 9.0 0.00 0.00 0.00 57 1015.5
20260507131503 55 193 3.0 9.0 0.00 0.00 0.00 59 1015.4
20260507131003 54 186 3.0 9.0 0.00 0.00 0.00 59 1015.4
20260507130524 54 179 3.0 8.0 0.00 0.00 0.00 60 1015.2
20260507130003 54 180 3.0 7.0 0.00 0.00 0.00 61 1015.4
20260507125503 53 181 3.0 10.0 0.00 0.00 0.00 60 1015.3
20260507125003 53 169 3.0 10.0 0.00 0.00 0.00 60 1015.4
20260507124524 53 165 3.0 9.0 0.00 0.00 0.00 60 1015.4
20260507124003 53 155 3.0 9.0 0.00 0.00 0.00 61 1015.4
20260507123503 52 152 2.0 8.0 0.00 0.00 0.00 62 1015.6
20260507123024 52 167 2.0 6.0 0.00 0.00 0.00 64 1015.5
20260507122503 52 164 2.0 6.0 0.00 0.00 0.00 65 1015.5
20260507122004 52 174 2.0 7.0 0.00 0.00 0.00 65 1015.7
20260507121503 51 139 2.0 7.0 0.00 0.00 0.00 66 1015.7
20260507121003 51 107 2.0 7.0 0.00 0.00 0.00 67 1015.6
20260507120503 51 115 3.0 8.0 0.00 0.00 0.00 67 1015.6
20260507120004 50 126 3.0 8.0 0.00 0.00 0.00 67 1015.4
20260507115503 50 121 3.0 9.0 0.00 0.00 0.00 67 1015.3
20260507115003 50 124 4.0 9.0 0.00 0.00 0.00 67 1015.5
20260507114503 50 123 3.0 9.0 0.00 0.00 0.00 67 1015.5
20260507114003 50 119 3.0 8.0 0.00 0.00 0.00 69 1015.4
20260507113524 49 119 3.0 8.0 0.00 0.00 0.00 70 1015.5
20260507113004 49 106 4.0 8.0 0.00 0.00 0.00 71 1015.4
20260507112503 49 106 4.0 10.0 0.00 0.00 0.00 71 1015.4
20260507112003 49 105 4.0 10.0 0.00 0.00 0.00 73 1015.4
20260507111504 48 99 5.0 10.0 0.00 0.00 0.00 73 1015.4
20260507111003 48 101 5.0 10.0 0.00 0.00 0.00 73 1015.6
20260507110503 48 110 4.0 9.0 0.00 0.00 0.00 74 1015.5
20260507110003 47 112 4.0 9.0 0.00 0.00 0.00 74 1015.5
20260507105503 47 115 4.0 9.0 0.00 0.00 0.00 75 1015.6
20260507105003 47 109 5.0 11.0 0.00 0.00 0.00 75 1015.7
20260507104504 47 105 4.0 11.0 0.00 0.00 0.00 76 1015.7
20260507104024 47 114 4.0 11.0 0.00 0.00 0.00 75 1015.7
20260507103524 47 129 3.0 9.0 0.00 0.00 0.00 75 1015.7
20260507103003 47 130 3.0 8.0 0.00 0.00 0.00 75 1015.7
20260507102503 47 114 3.0 8.0 0.00 0.00 0.00 76 1015.5
20260507102003 47 120 3.0 8.0 0.00 0.00 0.00 76 1015.6
20260507101503 47 122 3.0 10.0 0.00 0.00 0.00 76 1015.6
20260507101003 47 122 4.0 10.0 0.00 0.00 0.00 76 1015.5
20260507100503 46 136 4.0 9.0 0.00 0.00 0.00 76 1015.8
20260507100003 46 140 3.0 9.0 0.00 0.00 0.00 76 1015.5
20260507095503 46 134 3.0 9.0 0.00 0.00 0.00 76 1015.6
20260507095003 46 136 3.0 8.0 0.00 0.00 0.00 76 1015.7
20260507094503 46 134 3.0 7.0 0.00 0.00 0.00 76 1015.6
20260507094003 46 116 3.0 8.0 0.00 0.00 0.00 76 1015.6
20260507093503 47 119 2.0 8.0 0.00 0.00 0.00 76 1015.5
20260507093003 47 127 3.0 7.0 0.00 0.00 0.00 76 1015.5
20260507092524 46 125 3.0 7.0 0.00 0.00 0.00 77 1015.5
20260507092003 46 130 3.0 8.0 0.00 0.00 0.00 77 1015.6
20260507091503 46 137 3.0 9.0 0.00 0.00 0.00 76 1015.4
20260507091024 46 147 3.0 9.0 0.00 0.00 0.00 76 1015.4
20260507090503 47 147 3.0 10.0 0.00 0.00 0.00 77 1015.4
20260507090004 47 141 3.0 10.0 0.00 0.00 0.00 76 1015.5
20260507085503 47 144 3.0 9.0 0.00 0.00 0.00 76 1015.5
20260507085003 47 141 4.0 10.0 0.00 0.00 0.00 76 1015.6
20260507084503 47 132 4.0 10.0 0.00 0.00 0.00 76 1015.4
20260507084003 47 140 3.0 9.0 0.00 0.00 0.00 76 1015.4
20260507083503 47 140 3.0 10.0 0.00 0.00 0.00 76 1015.4
20260507083003 46 131 3.0 10.0 0.00 0.00 0.00 77 1015.4
20260507082503 46 138 3.0 9.0 0.00 0.00 0.00 77 1015.5
20260507082003 46 141 3.0 7.0 0.00 0.00 0.00 77 1015.4
20260507081503 46 135 3.0 7.0 0.00 0.00 0.00 78 1015.4
20260507081003 46 124 2.0 7.0 0.00 0.00 0.00 78 1015.5
20260507080503 46 124 2.0 8.0 0.00 0.00 0.00 78 1015.6
20260507080003 46 140 2.0 8.0 0.00 0.00 0.00 78 1015.3
20260507075524 45 143 2.0 6.0 0.00 0.00 0.00 78 1015.4
20260507075003 45 152 2.0 8.0 0.00 0.00 0.00 78 1015.6
20260507074503 45 150 2.0 8.0 0.00 0.00 0.00 79 1015.4
20260507074003 45 147 2.0 8.0 0.00 0.00 0.00 79 1015.4
20260507073503 45 98 1.0 4.0 0.00 0.00 0.00 79 1015.3
20260507073003 45 124 1.0 6.0 0.00 0.00 0.00 79 1015.5
20260507072503 45 149 1.0 7.0 0.00 0.00 0.00 79 1015.3
20260507072024 45 175 1.0 7.0 0.00 0.00 0.00 79 1015.5
20260507071503 44 122 1.0 6.0 0.00 0.00 0.00 79 1015.4
20260507071003 44 122 1.0 6.0 0.00 0.00 0.00 79 1015.4
20260507070503 44 116 2.0 7.0 0.00 0.00 0.00 80 1015.4
20260507070005 44 119 2.0 7.0 0.00 0.00 0.00 80 1015.3
20260507065503 44 139 2.0 6.0 0.00 0.00 0.00 80 1015.3
20260507065003 44 155 2.0 6.0 0.00 0.00 0.00 80 1015.4
20260507064524 44 159 2.0 6.0 0.00 0.00 0.00 80 1015.5
20260507064003 44 119 2.0 7.0 0.00 0.00 0.00 81 1015.4
20260507063503 43 126 2.0 9.0 0.00 0.00 0.00 81 1015.4
20260507063003 43 121 3.0 9.0 0.00 0.00 0.00 81 1015.4
20260507062503 43 121 3.0 8.0 0.00 0.00 0.00 81 1015.3
20260507062004 43 139 2.0 8.0 0.00 0.00 0.00 81 1015.4
20260507061504 43 133 2.0 7.0 0.00 0.00 0.00 82 1015.4
20260507061024 43 133 2.0 7.0 0.00 0.00 0.00 82 1015.3
20260507060503 43 137 2.0 7.0 0.00 0.00 0.00 82 1015.2
20260507060003 43 152 2.0 7.0 0.00 0.00 0.00 82 1015.4
20260507055504 43 188 1.0 7.0 0.00 0.00 0.00 81 1015.4
20260507055003 43 216 1.0 7.0 0.00 0.00 0.00 81 1015.3
20260507054524 43 226 1.0 7.0 0.00 0.00 0.00 82 1015.4
20260507054003 43 222 1.0 6.0 0.00 0.00 0.00 82 1015.1
20260507053524 43 149 1.0 4.0 0.00 0.00 0.00 82 1015.1
20260507053004 42 125 2.0 6.0 0.00 0.00 0.00 82 1015.1
20260507052524 42 112 2.0 6.0 0.00 0.00 0.00 82 1015.0
20260507052004 42 117 2.0 6.0 0.00 0.00 0.00 81 1015.2
20260507051503 42 151 2.0 6.0 0.00 0.00 0.00 81 1015.1
20260507051024 42 159 2.0 7.0 0.00 0.00 0.00 82 1015.2
20260507050503 42 166 3.0 9.0 0.00 0.00 0.00 81 1015.1
20260507050024 42 193 2.0 9.0 0.00 0.00 0.00 81 1015.2
20260507045503 42 215 1.0 4.0 0.00 0.00 0.00 81 1015.1
20260507045003 42 193 1.0 4.0 0.00 0.00 0.00 81 1015.1
20260507044503 42 223 1.0 6.0 0.00 0.00 0.00 81 1015.1
20260507044003 42 121 1.0 7.0 0.00 0.00 0.00 81 1014.8
20260507043503 42 126 1.0 7.0 0.00 0.00 0.00 81 1015.1
20260507043003 42 83 1.0 4.0 0.00 0.00 0.00 81 1014.8
20260507042503 42 65 1.0 3.0 0.00 0.00 0.00 80 1015.0
20260507042003 42 106 1.0 3.0 0.00 0.00 0.00 80 1015.1
20260507041503 42 123 1.0 6.0 0.00 0.00 0.00 80 1015.0
20260507041024 42 149 2.0 6.0 0.00 0.00 0.00 80 1015.2
20260507040503 42 131 2.0 8.0 0.00 0.00 0.00 80 1015.1
20260507040003 42 108 2.0 8.0 0.00 0.00 0.00 79 1015.0
20260507035503 42 100 2.0 6.0 0.00 0.00 0.00 79 1015.2
20260507035003 42 99 2.0 6.0 0.00 0.00 0.00 79 1015.1
20260507034503 42 101 2.0 7.0 0.00 0.00 0.00 79 1015.1
20260507034003 42 106 2.0 7.0 0.00 0.00 0.00 78 1015.1
20260507033503 42 134 2.0 7.0 0.00 0.00 0.00 78 1015.1
20260507033003 42 162 2.0 9.0 0.00 0.00 0.00 78 1015.2
20260507032504 42 160 2.0 9.0 0.00 0.00 0.00 78 1015.2
20260507032003 42 154 2.0 8.0 0.00 0.00 0.00 78 1015.0
20260507031503 42 149 2.0 8.0 0.00 0.00 0.00 78 1015.1
20260507031003 42 141 1.0 6.0 0.00 0.00 0.00 78 1015.1
20260507030503 42 121 2.0 6.0 0.00 0.00 0.00 78 1015.4
20260507030003 42 112 1.0 7.0 0.00 0.00 0.00 78 1015.1
20260507025504 42 129 1.0 7.0 0.00 0.00 0.00 77 1015.3
20260507025003 42 126 2.0 6.0 0.00 0.00 0.00 77 1015.2
20260507024503 42 125 2.0 6.0 0.00 0.00 0.00 77 1015.5
20260507024003 42 147 1.0 4.0 0.00 0.00 0.00 78 1015.5
20260507023503 42 209 1.0 3.0 0.00 0.00 0.00 78 1015.5
20260507023003 42 150 1.0 3.0 0.00 0.00 0.00 78 1015.4
20260507022503 42 157 1.0 4.0 0.00 0.00 0.00 78 1015.6
20260507022003 42 226 1.0 4.0 0.00 0.00 0.00 78 1015.4
20260507021524 42 220 1.0 4.0 0.00 0.00 0.00 78 1015.3
20260507021003 42 138 1.0 4.0 0.00 0.00 0.00 78 1015.5
20260507020504 42 121 2.0 8.0 0.00 0.00 0.00 78 1015.4
20260507020003 41 112 2.0 8.0 0.00 0.00 0.00 78 1015.2
20260507015504 41 103 3.0 7.0 0.00 0.00 0.00 79 1015.3
20260507015024 41 98 3.0 8.0 0.00 0.00 0.00 79 1015.2
20260507014503 41 101 3.0 10.0 0.00 0.00 0.00 79 1015.4
20260507014003 41 110 3.0 10.0 0.00 0.00 0.00 80 1015.1
20260507013503 41 101 4.0 8.0 0.00 0.00 0.00 80 1015.3
20260507013004 41 98 4.0 8.0 0.00 0.00 0.00 80 1015.2
20260507012503 41 101 4.0 8.0 0.00 0.00 0.00 80 1015.3
20260507012003 41 107 4.0 8.0 0.00 0.00 0.00 80 1015.3
20260507011503 42 111 4.0 10.0 0.00 0.00 0.00 80 1015.4
20260507011003 42 108 4.0 10.0 0.00 0.00 0.00 80 1015.3
20260507010503 42 108 4.0 9.0 0.00 0.00 0.00 80 1015.1
20260507010004 42 105 4.0 9.0 0.00 0.00 0.00 79 1015.3
20260507005503 42 110 4.0 10.0 0.00 0.00 0.00 79 1015.4
20260507005004 42 112 4.0 10.0 0.00 0.00 0.00 79 1015.7
20260507004504 42 104 5.0 9.0 0.00 0.00 0.00 80 1015.4
20260507004003 41 97 5.0 9.0 0.00 0.00 0.00 80 1015.5
20260507003524 41 95 4.0 9.0 0.00 0.00 0.00 80 1015.4
20260507003003 41 101 4.0 8.0 0.00 0.00 0.00 80 1015.5
20260507002503 41 103 4.0 8.0 0.00 0.00 0.00 80 1015.7
20260507002003 41 103 4.0 7.0 0.00 0.00 0.00 80 1015.7
20260507001504 41 104 4.0 8.0 0.00 0.00 0.00 81 1015.7
20260507001024 41 98 4.0 8.0 0.00 0.00 0.00 81 1015.5
20260507000503 41 101 4.0 9.0 0.00 0.00 0.00 81 1015.7
20260507000003 41 102 5.0 9.0 0.00 0.00 0.00 81 1015.5
20260506235503 41 94 5.0 10.0 0.00 0.00 0.00 81 1015.8
20260506235004 41 93 6.0 10.0 0.00 0.00 0.00 81 1015.7
20260506234503 41 98 5.0 10.0 0.00 0.00 0.00 81 1015.7
20260506234003 41 103 5.0 10.0 0.00 0.00 0.00 81 1015.8
20260506233503 41 103 5.0 9.0 0.00 0.00 0.00 81 1015.9
20260506233024 41 103 4.0 10.0 0.00 0.00 0.00 81 1015.9
20260506232503 41 103 5.0 10.0 0.00 0.00 0.00 81 1015.9
20260506232003 41 100 5.0 10.0 0.00 0.00 0.00 81 1015.9
20260506231503 41 98 6.0 10.0 0.00 0.00 0.00 81 1015.9
20260506231025 41 100 6.0 10.0 0.00 0.00 0.00 81 1015.8
20260506230503 41 102 6.0 10.0 0.00 0.00 0.00 80 1015.9
20260506230003 41 99 5.0 10.0 0.00 0.00 0.00 80 1015.8
20260506225503 41 96 5.0 9.0 0.00 0.00 0.00 81 1016.1
20260506225003 41 101 5.0 9.0 0.00 0.00 0.00 81 1015.9
20260506224524 41 103 5.0 10.0 0.00 0.00 0.00 80 1016.2
20260506224024 41 101 5.0 10.0 0.00 0.00 0.00 79 1016.0
20260506223503 41 101 4.0 8.0 0.00 0.00 0.00 79 1016.0
20260506223003 42 105 4.0 9.0 0.00 0.00 0.00 79 1016.0
20260506222503 42 110 4.0 9.0 0.00 0.00 0.00 78 1016.0
20260506222003 42 107 5.0 9.0 0.00 0.00 0.00 78 1015.9
20260506221504 42 100 5.0 9.0 0.00 0.00 0.00 78 1015.9
20260506221003 42 99 5.0 9.0 0.00 0.00 0.00 78 1015.7
20260506220524 42 96 6.0 11.0 0.00 0.00 0.00 77 1015.9
20260506220024 42 92 5.0 11.0 0.00 0.00 0.00 77 1015.8
20260506215503 42 95 5.0 9.0 0.00 0.00 0.00 77 1015.8
20260506215003 42 99 5.0 10.0 0.00 0.00 0.00 77 1015.6
20260506214503 42 97 5.0 10.0 0.00 0.00 0.00 77 1015.7
20260506214003 42 100 6.0 10.0 0.00 0.00 0.00 77 1015.9
20260506213503 43 99 5.0 10.0 0.00 0.00 0.00 76 1015.6
20260506213024 43 95 5.0 10.0 0.00 0.00 0.00 77 1015.6
20260506212503 43 97 5.0 9.0 0.00 0.00 0.00 77 1015.9
20260506212003 43 100 5.0 9.0 0.00 0.00 0.00 76 1015.6
20260506211524 43 99 5.0 10.0 0.00 0.00 0.00 76 1015.6
20260506211004 43 99 5.0 10.0 0.00 0.00 0.00 76 1015.7
20260506210503 43 101 5.0 11.0 0.00 0.00 0.00 76 1015.8
20260506210024 43 100 5.0 11.0 0.00 0.00 0.00 76 1015.7
20260506205503 43 99 4.0 8.0 0.00 0.00 0.00 76 1015.7
20260506205003 43 104 4.0 8.0 0.00 0.00 0.00 76 1015.8
20260506204503 43 106 4.0 8.0 0.00 0.00 0.00 76 1015.9
20260506204003 43 102 4.0 8.0 0.00 0.00 0.00 76 1015.8
20260506203503 43 99 4.0 8.0 0.00 0.00 0.00 76 1015.6
20260506203003 44 97 4.0 8.0 0.00 0.00 0.00 75 1015.7
20260506202504 44 95 4.0 8.0 0.00 0.00 0.00 75 1015.7
20260506202003 44 100 4.0 8.0 0.00 0.00 0.00 74 1015.6
20260506201503 44 107 4.0 8.0 0.00 0.00 0.00 74 1015.5
20260506201003 44 103 4.0 8.0 0.00 0.00 0.00 73 1015.5
20260506200524 44 102 4.0 8.0 0.00 0.00 0.00 73 1015.5
20260506200004 45 100 4.0 8.0 0.00 0.00 0.00 72 1015.3
20260506195503 45 100 4.0 9.0 0.00 0.00 0.00 72 1015.3
20260506195024 46 101 4.0 9.0 0.00 0.00 0.00 71 1015.4
20260506194504 46 101 4.0 9.0 0.00 0.00 0.00 71 1015.3
20260506194003 46 102 4.0 9.0 0.00 0.00 0.00 70 1015.5
20260506193503 46 103 4.0 9.0 0.00 0.00 0.00 70 1015.3
20260506193003 47 101 4.0 8.0 0.00 0.00 0.00 69 1015.2
20260506192503 47 102 4.0 11.0 0.00 0.00 0.00 68 1015.2
20260506192024 47 107 4.0 11.0 0.00 0.00 0.00 67 1015.3
20260506191506 48 106 4.0 9.0 0.00 0.00 0.00 66 1015.1
20260506191003 48 101 4.0 9.0 0.00 0.00 0.00 65 1015.3
20260506190524 48 96 4.0 9.0 0.00 0.00 0.00 65 1015.1
20260506190004 49 98 4.0 9.0 0.00 0.00 0.00 63 1015.2
20260506185503 49 101 4.0 9.0 0.00 0.00 0.00 63 1015.2
20260506185003 50 95 4.0 9.0 0.00 0.00 0.00 61 1015.1
20260506184503 50 97 4.0 9.0 0.00 0.00 0.00 60 1014.9
20260506184024 50 99 3.0 6.0 0.00 0.00 0.00 58 1015.0
20260506183504 50 99 3.0 7.0 0.00 0.00 0.00 56 1015.0
20260506183003 51 98 3.0 7.0 0.00 0.00 0.00 56 1014.9
20260506182503 51 100 3.0 7.0 0.00 0.00 0.00 56 1014.9
20260506182003 50 99 3.0 7.0 0.00 0.00 0.00 57 1014.9
20260506181524 51 92 3.0 7.0 0.00 0.00 0.00 56 1014.9
20260506181003 51 93 3.0 9.0 0.00 0.00 0.00 56 1014.8
20260506180503 51 97 3.0 9.0 0.00 0.00 0.00 57 1014.9
20260506180004 51 95 3.0 8.0 0.00 0.00 0.00 56 1014.8
20260506175503 51 91 3.0 8.0 0.00 0.00 0.00 58 1014.7